Location: Nelson
(41.2830°S, 173.2830°E)
Time: 01:37:11
(UTC+13:00)

Cosmos 1707 Rocket - Pass Details

Date: 24 January 2019
Orbit: 604 x 632 km, 82.5° (Epoch: 18 October)

Event Time Altitude Azimuth Distance (km) Brightness Sun altitude
Exits shadow 22:54:54 42° 40° (NE) 885 3.8 -18.6°
Maximum altitude 22:55:57 53° 86° (E) 760 3.7 -18.7°
Drops below altitude 10° 23:00:15 10° 162° (SSE) 1,989 6.6 -19.2°
Sets 23:02:31 0° 167° (SSE) 2,904 7.6 -19.5°
